Vorticity
nan nan nan nan nan nan nan nan nan nan nan nan nan nan nan nan nan nan nan nan nan nan nan nan nan nan nan nan nan nan nan nan nan nan nan nan nan nan nan nan nan nan nan
nan 11 8 9 9 8 7 9 11 8 9 9 10 9 8 8 10 10 11 9 10 8 9 9 7 6 7 9 10 11 9 9 10 9 7 10 9 9 9 8 9 8 nan
nan 12 13 11 11 8 8 9 9 9 10 9 9 9 10 10 10 10 10 8 7 8 8 7 7 9 8 9 9 9 9 9 9 10 9 8 9 9 10 9 10 9 nan
nan 14 8 8 8 8 9 10 9 10 10 10 10 10 8 9 9 9 8 8 9 10 9 9 9 8 8 8 8 8 10 10 9 9 11 11 10 9 10 10 10 12 nan
nan 17 10 8 6 11 14 12 10 11 10 9 8 9 9 9 8 8 10 10 10 10 9 9 10 9 9 7 8 9 10 9 9 9 10 12 12 14 9 10 11 8 nan
nan 12 15 16 14 11 10 11 10 9 8 7 9 10 9 10 15 11 7 9 10 10 9 8 12 13 9 9 7 7 4 5 8 9 9 7 9 9 12 11 9 9 nan
nan 11 12 13 13 13 10 9 10 9 9 9 10 9 10 11 13 13 7 8 11 9 9 8 9 11 8 8 8 7 7 8 6 7 7 6 9 8 6 8 10 9 nan
nan 8 9 10 10 10 11 9 9 11 10 9 10 10 10 11 14 13 8 5 9 11 10 9 8 8 11 11 9 8 8 9 8 6 7 5 7 7 9 11 7 7 nan
nan 8 9 9 11 9 9 10 10 10 9 10 11 11 10 13 12 8 7 7 7 11 11 10 8 10 12 8 7 9 8 9 15 13 8 7 9 9 4 6 10 8 nan
nan 11 10 9 10 10 9 10 10 11 10 10 10 11 10 11 10 7 4 7 9 9 10 13 13 10 9 8 7 10 9 10 7 10 13 16 13 12 10 7 7 7 nan
nan 12 11 10 8 8 8 9 10 11 10 10 11 10 9 10 13 10 3 3 8 10 10 11 17 18 13 10 7 5 8 11 10 9 10 11 13 14 13 12 7 7 nan
nan 9 9 9 8 10 12 10 10 10 10 10 9 9 10 13 15 12 8 3 2 7 8 9 8 17 20 11 9 9 9 6 9 10 9 10 11 10 12 14 12 11 nan
nan 9 10 11 10 11 11 8 10 10 10 10 9 10 10 11 15 19 11 7 1 4 10 13 9 3 7 17 17 8 7 7 9 9 9 10 10 10 10 12 16 14 nan
nan 10 10 10 11 9 8 10 9 8 9 11 9 9 9 11 10 12 13 14 12 5 8 11 13 9 9 12 13 12 11 11 10 8 9 8 9 13 12 12 12 12 nan
nan 10 10 10 11 9 9 9 6 8 8 7 9 10 10 11 17 16 10 9 14 13 10 9 10 11 11 10 10 11 10 11 11 10 9 10 10 10 10 10 9 11 nan
nan 9 9 9 9 10 9 11 13 11 10 6 3 5 13 18 12 12 16 16 12 10 6 9 9 10 10 10 11 11 11 10 10 11 11 11 10 9 9 10 11 11 nan
nan 8 10 10 10 10 10 10 11 16 14 9 11 12 7 7 8 11 16 18 10 3 8 12 10 11 11 10 11 12 12 13 13 11 11 12 10 10 12 10 11 10 nan
nan 9 6 11 11 12 12 9 11 12 13 14 17 16 10 12 13 7 2 4 7 9 15 12 11 10 10 10 11 11 12 12 11 12 11 9 11 13 10 10 12 10 nan
nan 7 8 9 12 13 12 11 13 13 10 11 13 14 18 21 15 12 4 1 9 8 9 10 12 11 10 10 9 10 11 11 9 8 9 11 14 11 8 11 13 12 nan
nan 10 3 5 10 9 11 13 13 13 11 10 10 8 11 14 13 11 10 9 9 9 10 11 11 10 10 11 10 10 10 10 11 9 10 12 14 13 10 10 9 10 nan
nan 14 11 6 8 7 9 10 10 11 12 11 10 14 10 4 10 10 12 11 10 11 11 10 10 9 10 11 12 12 12 11 11 13 11 10 11 9 11 12 11 8 nan
nan 10 11 10 9 8 9 8 8 10 13 10 11 18 10 2 11 11 10 10 11 11 12 12 11 11 11 9 10 15 16 13 10 8 9 11 11 11 11 10 10 10 nan
nan 12 9 12 13 10 9 10 8 12 13 12 9 9 10 9 10 11 10 10 11 11 13 11 9 9 11 12 13 11 14 13 11 10 11 15 14 13 12 12 10 7 nan
nan 14 13 11 13 15 16 14 10 12 11 11 12 11 10 11 11 11 10 10 11 11 12 12 12 11 12 12 11 10 10 8 10 10 11 13 13 13 15 14 11 11 nan
nan 14 13 13 12 13 16 14 12 10 12 11 11 12 11 12 11 10 11 13 12 16 15 16 15 15 17 18 9 6 4 1 7 10 12 10 10 15 15 11 15 20 nan
nan nan nan nan nan nan nan nan nan nan nan nan nan nan nan nan nan nan nan nan nan nan nan nan nan nan nan nan nan nan nan nan nan nan nan nan nan nan nan nan nan nan nan
CAPE
755 718 442 320 203 170 3 0 0 0 3 14 5 0 0 0 0 0 1 0 0 0 5 0 10 0 0 0 0 0 0 0 0 0 0 0 0 0 0 0 0 0 0
1069 883 588 401 159 1 18 6 0 0 0 8 14 0 0 0 0 0 0 0 0 0 0 0 0 0 0 0 0 0 0 0 0 0 0 0 0 0 0 0 0 0 0
1329 1022 591 128 27 18 24 4 0 13 83 95 19 0 0 0 0 0 0 0 0 0 0 1 0 0 0 0 0 0 0 0 0 0 0 0 0 0 0 0 1 2 1
1146 1260 950 488 279 137 101 83 147 223 135 71 24 0 0 0 0 0 0 0 0 0 0 0 0 0 0 0 0 0 0 0 0 0 0 0 0 5 0 1 25 36 29
1282 1555 1257 813 380 372 115 229 343 238 140 27 2 0 0 0 0 0 0 0 7 4 0 0 0 0 0 0 0 0 0 0 0 0 0 1 19 39 25 32 9 0 7
850 771 812 527 614 449 184 91 25 41 3 0 0 0 0 20 58 35 17 8 9 5 0 0 0 141 0 0 0 0 0 0 0 0 0 8 37 106 26 14 1 0 8
348 245 164 134 82 32 23 1 1 1 3 2 0 16 48 81 15 83 106 9 5 0 0 0 0 0 0 0 0 0 0 0 0 0 0 0 3 0 8 65 45 0 0
180 77 7 3 2 2 2 1 1 1 1 4 31 80 48 63 21 1 0 0 0 0 0 0 0 0 0 0 0 0 0 0 0 0 0 0 0 0 0 0 3 0 0
73 22 1 0 3 2 2 0 30 16 9 37 47 59 88 0 0 0 0 0 0 0 0 0 0 0 0 0 0 0 0 0 0 0 0 0 0 0 0 0 8 1 0
61 18 12 0 3 1 28 53 40 33 30 14 14 5 0 0 0 0 0 0 0 0 0 0 0 0 0 0 0 0 0 0 0 0 0 0 0 0 0 0 0 0 0
25 95 42 14 2 1 14 14 45 44 8 5 0 0 0 0 0 0 0 0 0 0 0 0 0 4 3 0 0 0 0 0 0 21 33 0 0 0 0 0 0 0 0
95 18 0 0 0 0 9 7 11 9 5 0 0 0 0 0 0 0 0 0 0 0 0 0 0 0 6 0 0 2 47 20 0 0 0 0 0 0 0 0 0 0 0
89 64 59 76 47 117 76 4 5 6 2 2 0 0 0 0 0 0 0 0 0 0 0 0 0 0 0 0 0 0 0 0 0 0 0 0 0 0 0 0 63 69 23
180 207 196 11 14 8 5 3 0 0 0 0 0 0 0 0 5 12 0 0 0 0 0 0 0 0 0 2 0 0 0 0 0 0 0 0 0 0 0 34 36 159 378
387 172 60 1 0 0 0 0 0 0 0 0 0 10 17 9 4 10 15 1 0 0 0 0 0 0 0 0 0 0 0 0 0 0 0 0 0 0 12 11 0 0 0
111 27 0 0 0 0 0 0 0 0 0 0 8 17 13 0 0 0 4 8 11 2 0 0 0 0 0 0 0 0 0 0 0 0 0 0 0 12 82 3 0 0 0
63 4 0 0 0 0 0 13 2 0 0 0 0 0 0 0 0 0 0 0 0 0 0 0 0 0 0 0 0 0 35 109 115 84 58 68 89 139 46 0 0 0 0
81 1 0 0 0 0 1 18 19 11 18 12 0 0 0 0 0 0 0 0 0 0 0 0 0 0 0 0 0 8 9 213 424 303 101 94 337 304 9 0 0 0 0
113 85 39 11 0 7 2 12 9 12 16 16 14 2 0 0 0 0 0 0 0 0 0 0 0 0 0 0 0 5 75 240 295 309 32 2 233 48 0 0 0 0 0
373 143 116 82 34 0 0 0 4 8 12 21 63 11 6 0 0 0 0 0 0 0 0 0 0 0 0 0 0 1 4 135 210 128 2 0 41 0 0 0 0 0 0
506 571 296 105 97 150 60 0 0 1 7 26 21 0 0 7 0 0 0 0 0 0 0 0 0 0 0 0 90 206 225 21 0 20 318 180 30 0 0 0 0 0 0
556 634 563 307 313 303 360 310 80 10 6 18 143 288 0 1 0 0 0 0 0 0 0 0 0 0 0 0 37 216 327 99 39 107 109 100 25 0 0 0 0 0 0
809 646 617 607 550 525 368 306 163 70 36 56 60 110 78 9 0 0 0 8 20 0 0 0 0 11 65 86 227 271 255 215 170 136 146 117 78 1 0 0 0 0 0
19 225 771 608 192 225 192 340 336 68 0 37 207 223 227 53 35 16 0 24 69 147 254 6 0 8 60 102 14 0 0 1 0 0 0 3 35 44 0 0 0 0 0
41 197 244 7 0 5 24 18 5 8 40 89 128 127 160 196 271 218 59 0 5 144 245 222 295 171 92 6 0 0 0 0 0 0 0 0 0 1 7 0 0 0 0
60 56 73 12 48 109 0 14 24 4 0 0 32 199 260 51 35 32 17 32 19 24 19 2 10 36 15 21 28 49 4 3 0 0 0 0 0 0 0 0 0 0 0